TimeCST,TemperatureF,Dew PointF,Humidity,Sea Level PressureIn,VisibilityMPH,Wind Direction,Wind SpeedMPH,Gust SpeedMPH,PrecipitationIn,Events,Conditions,WindDirDegrees,DateUTC
12:51 AM,52.0,35.1,53,30.36,10.0,NE,8.1,-,N/A,,Partly Cloudy,40,2012-12-22 06:51:00
1:51 AM,53.1,33.1,47,30.34,10.0,NE,9.2,-,N/A,,Partly Cloudy,40,2012-12-22 07:51:00
2:51 AM,50.0,34.0,54,30.34,10.0,NE,8.1,-,N/A,,Partly Cloudy,40,2012-12-22 08:51:00
3:51 AM,51.8,37.4,58,30.32,10.0,NE,9.2,-,N/A,,Partly Cloudy,40,2012-12-22 09:51:00
4:51 AM,50.0,37.9,63,30.31,10.0,ENE,4.6,-,N/A,,Clear,70,2012-12-22 10:51:00
5:51 AM,48.9,39.0,69,30.30,10.0,NE,5.8,-,N/A,,Clear,50,2012-12-22 11:51:00
6:51 AM,52.0,45.0,77,30.30,10.0,ENE,6.9,-,N/A,,Partly Cloudy,70,2012-12-22 12:51:00
7:51 AM,52.0,45.0,77,30.32,10.0,NNE,6.9,-,N/A,,Clear,30,2012-12-22 13:51:00
8:51 AM,63.0,51.1,65,30.33,10.0,Calm,Calm,-,N/A,,Partly Cloudy,0,2012-12-22 14:51:00
9:51 AM,72.0,51.1,48,30.32,10.0,SSE,17.3,24.2,N/A,,Scattered Clouds,160,2012-12-22 15:51:00
10:51 AM,73.9,51.1,45,30.30,10.0,SE,19.6,-,N/A,,Scattered Clouds,140,2012-12-22 16:51:00
11:51 AM,73.9,51.1,45,30.28,10.0,SE,17.3,-,N/A,,Mostly Cloudy,140,2012-12-22 17:51:00
12:51 PM,73.4,51.8,47,30.23,10.0,SE,19.6,-,N/A,,Mostly Cloudy,140,2012-12-22 18:51:00
1:51 PM,73.0,54.0,51,30.19,10.0,SSE,21.9,-,N/A,,Overcast,150,2012-12-22 19:51:00
2:51 PM,72.0,54.0,53,30.18,10.0,SSE,21.9,-,N/A,,Overcast,160,2012-12-22 20:51:00
3:51 PM,72.0,55.0,55,30.17,10.0,SSE,17.3,-,N/A,,Overcast,150,2012-12-22 21:51:00
4:51 PM,72.0,57.0,59,30.16,10.0,SSE,13.8,-,N/A,,Overcast,150,2012-12-22 22:51:00
5:51 PM,71.1,57.0,61,30.14,10.0,SSE,13.8,-,N/A,,Mostly Cloudy,160,2012-12-22 23:51:00
6:51 PM,71.1,57.0,61,30.15,10.0,SSE,11.5,-,N/A,,Mostly Cloudy,160,2012-12-23 00:51:00
7:51 PM,70.0,57.9,65,30.14,10.0,SSE,12.7,-,N/A,,Overcast,150,2012-12-23 01:51:00
8:51 PM,69.1,57.9,68,30.14,10.0,SSE,10.4,-,N/A,,Scattered Clouds,160,2012-12-23 02:51:00
9:51 PM,66.9,57.9,73,30.12,10.0,SSE,9.2,-,N/A,,Scattered Clouds,160,2012-12-23 03:51:00
10:51 PM,66.0,57.9,75,30.11,10.0,SSE,6.9,-,N/A,,Partly Cloudy,160,2012-12-23 04:51:00
11:51 PM,62.1,55.0,78,30.10,10.0,SSE,6.9,-,N/A,,Clear,160,2012-12-23 05:51:00